TRA78H LIBD-EBBR

Flight info

Callsign TRA78H
Flight time 2h 5m
Altitude 36000
Route PISIP DCT VIE DCT RUPAX DCT AGOMO DCT AKADO DCT LAMPO DCT GIKEB DCT UNIMI DCT MOGTI DCT KPT L608 TEDGO DCT IDOVI Z104 GESLO N852 LNO
Aircraft A320/M-SDE3FGHIRWY/LB1

Departure

Time 2026-05-07 17:42
Airport Bari Karol Wojtyła International Airport (LIBD)

Arrival

Time 2026-05-07 19:47
Airport Brussels Airport (EBBR)
Time Latitude Longitude Altitude Speed Heading
2026-05-07 17:27 41.13557 16.76458 136 ft 0 kts 160°
2026-05-07 17:33 41.13557 16.76457 136 ft 1 kts 160°
2026-05-07 17:33 41.13578 16.76446 136 ft 4 kts 153°
2026-05-07 17:34 41.13601 16.76428 136 ft 4 kts 138°
2026-05-07 17:34 41.13616 16.76402 136 ft 4 kts 94°
2026-05-07 17:34 41.13615 16.76385 136 ft 1 kts 70°
2026-05-07 17:34 41.13615 16.76383 136 ft 0 kts 70°
2026-05-07 17:36 41.13615 16.76385 136 ft 1 kts 70°
2026-05-07 17:37 41.13624 16.76416 136 ft 6 kts 69°
2026-05-07 17:37 41.13642 16.76482 136 ft 9 kts 69°
2026-05-07 17:37 41.13691 16.76544 136 ft 11 kts 25°
2026-05-07 17:37 41.13769 16.76551 136 ft 13 kts 340°
2026-05-07 17:38 41.13817 16.76596 134 ft 9 kts 72°
2026-05-07 17:38 41.13845 16.76695 127 ft 15 kts 69°
2026-05-07 17:38 41.13890 16.76852 122 ft 20 kts 69°
2026-05-07 17:38 41.13939 16.77028 123 ft 20 kts 70°
2026-05-07 17:39 41.13975 16.77158 122 ft 11 kts 70°
2026-05-07 17:39 41.14004 16.77256 122 ft 12 kts 69°
2026-05-07 17:39 41.14033 16.77355 120 ft 13 kts 63°
2026-05-07 17:39 41.14111 16.77407 118 ft 9 kts 16°
2026-05-07 17:40 41.14187 16.77416 116 ft 13 kts 345°
2026-05-07 17:40 41.14216 16.77342 113 ft 5 kts 253°
2026-05-07 17:40 41.14212 16.77329 113 ft 0 kts 247°
2026-05-07 17:40 41.14211 16.77328 113 ft 0 kts 247°
2026-05-07 17:41 41.14205 16.77307 116 ft 14 kts 247°
2026-05-07 17:41 41.14081 16.76872 124 ft 84 kts 249°
2026-05-07 17:41 41.13806 16.75899 137 ft 138 kts 250°
2026-05-07 17:41 41.13428 16.74547 304 ft 163 kts 251°
2026-05-07 17:42 41.13040 16.73174 928 ft 157 kts 245°
2026-05-07 17:42 41.12783 16.72274 1297 ft 158 kts 243°
2026-05-07 17:42 41.12223 16.70336 1688 ft 182 kts 244°
2026-05-07 17:42 41.11750 16.68681 2038 ft 199 kts 243°
2026-05-07 17:43 41.11423 16.67530 2410 ft 201 kts 242°
2026-05-07 17:43 41.10918 16.65754 2922 ft 211 kts 242°
2026-05-07 17:43 41.10391 16.63907 3619 ft 216 kts 242°
2026-05-07 17:43 41.09862 16.62055 4312 ft 220 kts 244°
2026-05-07 17:44 41.09298 16.60092 4996 ft 227 kts 244°
2026-05-07 17:44 41.08970 16.58015 5631 ft 239 kts 274°
2026-05-07 17:44 41.10048 16.55475 6443 ft 250 kts 328°
2026-05-07 17:44 41.11114 16.54861 6892 ft 248 kts 354°
2026-05-07 17:45 41.11808 16.54801 7139 ft 246 kts 10°
2026-05-07 17:45 41.12623 16.55031 7455 ft 243 kts 24°
2026-05-07 17:45 41.14169 16.55880 8132 ft 245 kts 26°
2026-05-07 17:46 41.15755 16.56755 8831 ft 249 kts 25°
2026-05-07 17:46 41.17379 16.57638 9514 ft 253 kts 25°
2026-05-07 17:46 41.19022 16.58521 10190 ft 257 kts 25°
2026-05-07 17:46 41.20688 16.59412 10836 ft 259 kts 24°
2026-05-07 17:47 41.22382 16.60315 11480 ft 263 kts 23°
2026-05-07 17:47 41.24138 16.61059 12101 ft 268 kts 10°
2026-05-07 17:47 41.26063 16.61313 12361 ft 290 kts
2026-05-07 17:47 41.28165 16.61487 12543 ft 313 kts
2026-05-07 17:48 41.30422 16.61664 12690 ft 336 kts
2026-05-07 17:48 41.32033 16.61792 12786 ft 351 kts
2026-05-07 17:48 41.34554 16.62002 13059 ft 367 kts
2026-05-07 17:48 41.36463 16.62168 13486 ft 372 kts
2026-05-07 17:49 41.38704 16.62367 14003 ft 375 kts
2026-05-07 17:49 41.41319 16.62601 14571 ft 379 kts
2026-05-07 17:49 41.43896 16.62832 15104 ft 383 kts
2026-05-07 17:49 41.45814 16.63003 15525 ft 385 kts
2026-05-07 17:50 41.48108 16.63170 16021 ft 386 kts 358°
2026-05-07 17:50 41.50777 16.62763 16583 ft 386 kts 343°
2026-05-07 17:50 41.53285 16.61544 17163 ft 384 kts 329°
2026-05-07 17:50 41.55506 16.59605 17767 ft 381 kts 316°
2026-05-07 17:51 41.57350 16.57082 18373 ft 380 kts 308°
2026-05-07 17:51 41.59087 16.54413 18935 ft 382 kts 308°
2026-05-07 17:51 41.60842 16.51723 19520 ft 383 kts 308°
2026-05-07 17:51 41.62603 16.49032 20106 ft 385 kts 308°
2026-05-07 17:52 41.64369 16.46335 20684 ft 387 kts 308°
2026-05-07 17:52 41.66147 16.43621 21247 ft 389 kts 308°
2026-05-07 17:52 41.67932 16.40893 21790 ft 390 kts 308°
2026-05-07 17:52 41.69703 16.38182 22305 ft 392 kts 308°
2026-05-07 17:53 41.71503 16.35423 22824 ft 394 kts 308°
2026-05-07 17:53 41.73310 16.32657 23359 ft 395 kts 308°
2026-05-07 17:53 41.75117 16.29889 23837 ft 395 kts 308°
2026-05-07 17:53 41.76927 16.27108 24253 ft 397 kts 308°
2026-05-07 17:54 41.78741 16.24312 24651 ft 398 kts 307°
2026-05-07 17:54 41.80563 16.21497 25035 ft 400 kts 307°
2026-05-07 17:54 41.82389 16.18673 25406 ft 402 kts 307°
2026-05-07 17:54 41.84222 16.15839 25771 ft 403 kts 307°
2026-05-07 17:55 41.85659 16.13617 26041 ft 405 kts 307°
2026-05-07 17:55 41.87509 16.10753 26390 ft 407 kts 307°
2026-05-07 17:55 41.89369 16.07871 26710 ft 410 kts 306°
2026-05-07 17:55 41.91244 16.04964 26986 ft 413 kts 306°
2026-05-07 17:56 41.93151 16.02054 27315 ft 416 kts 307°
2026-05-07 17:56 41.95095 15.99167 27672 ft 419 kts 307°
2026-05-07 17:56 41.97067 15.96283 28039 ft 420 kts 307°
2026-05-07 17:56 41.99059 15.93386 28375 ft 422 kts 307°
2026-05-07 17:57 42.01049 15.90481 28707 ft 423 kts 307°
2026-05-07 17:57 42.02374 15.88537 28930 ft 425 kts 307°
2026-05-07 17:57 42.04917 15.84785 29387 ft 426 kts 307°
2026-05-07 17:57 42.06912 15.81823 29875 ft 424 kts 306°
2026-05-07 17:58 42.08886 15.78881 30308 ft 423 kts 306°
2026-05-07 17:58 42.10853 15.75946 30736 ft 421 kts 306°
2026-05-07 17:58 42.12591 15.73354 31143 ft 418 kts 306°
2026-05-07 17:58 42.14513 15.70491 31629 ft 415 kts 306°
2026-05-07 17:59 42.16448 15.67609 32163 ft 411 kts 306°
2026-05-07 17:59 42.18359 15.64761 32669 ft 408 kts 306°
2026-05-07 17:59 42.20255 15.61934 33150 ft 405 kts 305°
2026-05-07 17:59 42.22145 15.59107 33583 ft 404 kts 305°
2026-05-07 18:00 42.24019 15.56296 34003 ft 402 kts 305°
2026-05-07 18:00 42.25856 15.53535 34358 ft 401 kts 304°
2026-05-07 18:00 42.27712 15.50743 34728 ft 398 kts 304°
2026-05-07 18:00 42.29561 15.48036 35103 ft 399 kts 308°
2026-05-07 18:01 42.31748 15.45605 35471 ft 407 kts 316°
2026-05-07 18:01 42.34082 15.43444 35823 ft 405 kts 316°
2026-05-07 18:01 42.36405 15.41291 35974 ft 405 kts 316°
2026-05-07 18:01 42.38733 15.39123 36017 ft 409 kts 316°
2026-05-07 18:02 42.45775 15.32535 36000 ft 413 kts 316°
2026-05-07 18:03 42.50507 15.28108 36022 ft 413 kts 316°
2026-05-07 18:03 42.55253 15.23667 36006 ft 415 kts 316°
2026-05-07 18:04 42.60003 15.19217 36008 ft 415 kts 316°
2026-05-07 18:04 42.64749 15.14737 36029 ft 416 kts 316°
2026-05-07 18:05 42.69497 15.10250 36029 ft 416 kts 316°
2026-05-07 18:05 42.74261 15.05754 36015 ft 417 kts 316°
2026-05-07 18:06 42.78988 15.01279 36015 ft 416 kts 316°
2026-05-07 18:06 42.83754 14.96763 36012 ft 416 kts 316°
2026-05-07 18:07 42.88509 14.92247 36063 ft 416 kts 316°
2026-05-07 18:07 42.93256 14.87723 36023 ft 416 kts 316°
2026-05-07 18:08 42.98010 14.83186 36015 ft 417 kts 316°
2026-05-07 18:08 43.02626 14.78780 36013 ft 417 kts 316°
2026-05-07 18:09 43.07382 14.74232 36036 ft 417 kts 316°
2026-05-07 18:09 43.12139 14.69670 36031 ft 417 kts 316°
2026-05-07 18:10 43.16880 14.65099 36027 ft 417 kts 316°
2026-05-07 18:10 43.21632 14.60517 36024 ft 417 kts 316°
2026-05-07 18:11 43.26389 14.55935 36025 ft 418 kts 316°
2026-05-07 18:11 43.31128 14.51363 36047 ft 418 kts 316°
2026-05-07 18:12 43.35880 14.46764 36036 ft 418 kts 316°
2026-05-07 18:12 43.40642 14.42142 36036 ft 419 kts 316°
2026-05-07 18:13 43.45399 14.37516 36029 ft 419 kts 316°
2026-05-07 18:13 43.50161 14.32875 36032 ft 419 kts 316°
2026-05-07 18:14 43.54922 14.28213 36047 ft 419 kts 316°
2026-05-07 18:14 43.59676 14.23553 36038 ft 420 kts 316°
2026-05-07 18:15 43.64445 14.18881 36045 ft 420 kts 316°
2026-05-07 18:15 43.69210 14.14205 36038 ft 420 kts 316°
2026-05-07 18:16 43.73979 14.09511 36034 ft 421 kts 316°
2026-05-07 18:16 43.78725 14.04842 36047 ft 421 kts 317°
2026-05-07 18:17 43.83509 14.00129 36044 ft 421 kts 317°
2026-05-07 18:17 43.88274 13.95403 36035 ft 421 kts 316°
2026-05-07 18:18 43.93036 13.90663 36027 ft 421 kts 316°
2026-05-07 18:18 43.97785 13.85922 36024 ft 421 kts 316°
2026-05-07 18:19 44.02550 13.81176 36030 ft 421 kts 316°
2026-05-07 18:19 44.07321 13.76430 36026 ft 422 kts 316°
2026-05-07 18:20 44.12083 13.71675 36026 ft 422 kts 316°
2026-05-07 18:20 44.16819 13.66937 36026 ft 422 kts 316°
2026-05-07 18:21 44.21579 13.62153 36047 ft 422 kts 316°
2026-05-07 18:21 44.26336 13.57364 36038 ft 422 kts 316°
2026-05-07 18:22 44.31099 13.52562 36050 ft 422 kts 316°
2026-05-07 18:22 44.35857 13.47754 36043 ft 423 kts 316°
2026-05-07 18:23 44.40626 13.42933 36046 ft 423 kts 317°
2026-05-07 18:23 44.45392 13.38102 36039 ft 423 kts 316°
2026-05-07 18:24 44.50153 13.33253 36033 ft 423 kts 316°
2026-05-07 18:24 44.54875 13.28434 36032 ft 423 kts 316°
2026-05-07 18:25 44.59637 13.23571 36051 ft 423 kts 316°
2026-05-07 18:25 44.64394 13.18702 36037 ft 423 kts 316°
2026-05-07 18:26 44.69142 13.13843 36032 ft 423 kts 317°
2026-05-07 18:26 44.73901 13.08959 36030 ft 423 kts 316°
2026-05-07 18:27 44.78645 13.04077 36029 ft 423 kts 316°
2026-05-07 18:27 44.83395 12.99180 36037 ft 423 kts 316°
2026-05-07 18:28 44.88142 12.94270 36044 ft 423 kts 316°
2026-05-07 18:28 44.92857 12.89381 36036 ft 423 kts 316°
2026-05-07 18:29 44.97601 12.84460 36032 ft 423 kts 316°
2026-05-07 18:29 45.02351 12.79530 36029 ft 424 kts 317°
2026-05-07 18:30 45.07227 12.74792 36051 ft 426 kts 319°
2026-05-07 18:30 45.12179 12.70184 36044 ft 426 kts 320°
2026-05-07 18:31 45.17127 12.65547 36037 ft 426 kts 319°
2026-05-07 18:31 45.21216 12.61651 36031 ft 426 kts 319°
2026-05-07 18:32 45.26117 12.56944 36026 ft 426 kts 319°
2026-05-07 18:32 45.31023 12.52221 36036 ft 426 kts 319°
2026-05-07 18:33 45.35917 12.47465 36044 ft 425 kts 318°
2026-05-07 18:33 45.40726 12.42560 36033 ft 425 kts 317°
2026-05-07 18:34 45.45508 12.37606 36013 ft 425 kts 317°
2026-05-07 18:34 45.50307 12.32672 36021 ft 425 kts 317°
2026-05-07 18:35 45.55122 12.27748 36015 ft 426 kts 318°
2026-05-07 18:35 45.59931 12.22822 36018 ft 426 kts 317°
2026-05-07 18:36 45.64739 12.17878 36033 ft 426 kts 318°
2026-05-07 18:36 45.69508 12.12959 36023 ft 426 kts 318°
2026-05-07 18:37 45.74316 12.07999 36048 ft 426 kts 318°
2026-05-07 18:37 45.79119 12.03021 36038 ft 426 kts 318°
2026-05-07 18:38 45.83922 11.98028 36038 ft 426 kts 318°
2026-05-07 18:38 45.88860 11.93272 36037 ft 430 kts 322°
2026-05-07 18:39 45.94004 11.88869 36056 ft 431 kts 323°
2026-05-07 18:39 45.99179 11.84477 36062 ft 431 kts 323°
2026-05-07 18:40 46.04303 11.80010 36056 ft 430 kts 322°
2026-05-07 18:40 46.09394 11.75480 36048 ft 430 kts 322°
2026-05-07 18:41 46.14483 11.70952 36036 ft 430 kts 322°
2026-05-07 18:41 46.19546 11.66457 36046 ft 430 kts 322°
2026-05-07 18:42 46.24649 11.61930 36043 ft 430 kts 322°
2026-05-07 18:42 46.29758 11.57384 36047 ft 430 kts 322°
2026-05-07 18:43 46.34853 11.52831 36049 ft 430 kts 322°
2026-05-07 18:43 46.39944 11.48271 36068 ft 430 kts 322°
2026-05-07 18:44 46.45001 11.43735 35968 ft 430 kts 322°
2026-05-07 18:44 46.50093 11.39166 35966 ft 430 kts 322°
2026-05-07 18:45 46.55180 11.34590 35958 ft 429 kts 322°
2026-05-07 18:45 46.60253 11.30006 35982 ft 429 kts 322°
2026-05-07 18:46 46.65330 11.25401 36017 ft 430 kts 322°
2026-05-07 18:46 46.70417 11.20784 36077 ft 431 kts 322°
2026-05-07 18:47 46.75507 11.16160 36074 ft 431 kts 323°
2026-05-07 18:47 46.80591 11.11534 36078 ft 431 kts 322°
2026-05-07 18:48 46.85649 11.06945 36089 ft 432 kts 326°
2026-05-07 18:48 46.91146 11.03199 36087 ft 437 kts 330°
2026-05-07 18:49 46.96699 10.99571 36070 ft 437 kts 330°
2026-05-07 18:49 47.02262 10.95929 36069 ft 438 kts 330°
2026-05-07 18:50 47.07824 10.92272 36088 ft 438 kts 331°
2026-05-07 18:50 47.13387 10.88609 36079 ft 438 kts 331°
2026-05-07 18:51 47.18943 10.84936 36080 ft 437 kts 331°
2026-05-07 18:51 47.24493 10.81258 36079 ft 437 kts 331°
2026-05-07 18:52 47.30038 10.77581 36084 ft 437 kts 331°
2026-05-07 18:52 47.35562 10.73918 36076 ft 438 kts 331°
2026-05-07 18:53 47.40879 10.69688 36065 ft 431 kts 321°
2026-05-07 18:53 47.45805 10.64626 36061 ft 431 kts 321°
2026-05-07 18:54 47.50740 10.59561 36066 ft 432 kts 321°
2026-05-07 18:54 47.55675 10.54508 36082 ft 432 kts 321°
2026-05-07 18:55 47.60624 10.49429 36074 ft 432 kts 321°
2026-05-07 18:55 47.65560 10.44341 36071 ft 432 kts 321°
2026-05-07 18:56 47.70467 10.39256 36070 ft 432 kts 321°
2026-05-07 18:56 47.75391 10.34099 36069 ft 432 kts 320°
2026-05-07 18:57 47.80093 10.28562 36073 ft 431 kts 316°
2026-05-07 18:57 47.84669 10.22801 36069 ft 431 kts 316°
2026-05-07 18:58 47.89228 10.17083 36070 ft 431 kts 317°
2026-05-07 18:58 47.93863 10.11401 36076 ft 432 kts 317°
2026-05-07 18:59 47.98516 10.05730 36074 ft 432 kts 317°
2026-05-07 18:59 48.03163 10.00027 36094 ft 432 kts 317°
2026-05-07 19:00 48.07814 9.94291 36069 ft 432 kts 317°
2026-05-07 19:00 48.12447 9.88554 36082 ft 432 kts 317°
2026-05-07 19:01 48.17085 9.82799 36074 ft 432 kts 317°
2026-05-07 19:01 48.21718 9.77046 36077 ft 432 kts 317°
2026-05-07 19:02 48.26339 9.71286 36095 ft 432 kts 317°
2026-05-07 19:02 48.30958 9.65520 36074 ft 432 kts 317°
2026-05-07 19:03 48.35556 9.59763 36068 ft 433 kts 317°
2026-05-07 19:03 48.40168 9.53873 36037 ft 436 kts 316°
2026-05-07 19:04 48.44794 9.47905 36049 ft 440 kts 317°
2026-05-07 19:04 48.49459 9.41906 36054 ft 441 kts 317°
2026-05-07 19:05 48.54133 9.35891 36047 ft 442 kts 317°
2026-05-07 19:05 48.58810 9.29852 36050 ft 443 kts 317°
2026-05-07 19:06 48.63489 9.23792 36057 ft 443 kts 316°
2026-05-07 19:06 48.70498 9.14706 36065 ft 444 kts 316°
2026-05-07 19:07 48.75189 9.08608 36082 ft 444 kts 317°
2026-05-07 19:07 48.79871 9.02498 36083 ft 444 kts 317°
2026-05-07 19:08 48.84547 8.96367 36086 ft 444 kts 316°
2026-05-07 19:08 48.89226 8.90216 36088 ft 444 kts 316°
2026-05-07 19:09 48.93905 8.84064 36090 ft 444 kts 316°
2026-05-07 19:09 48.98580 8.77899 36097 ft 445 kts 316°
2026-05-07 19:10 49.03227 8.71759 36091 ft 445 kts 316°
2026-05-07 19:10 49.07904 8.65555 36090 ft 445 kts 316°
2026-05-07 19:11 49.12578 8.59342 36087 ft 445 kts 316°
2026-05-07 19:11 49.17253 8.53130 36086 ft 445 kts 316°
2026-05-07 19:12 49.21920 8.46896 36104 ft 445 kts 316°
2026-05-07 19:12 49.26578 8.40640 36009 ft 446 kts 316°
2026-05-07 19:13 49.28915 8.37497 35382 ft 446 kts 316°
2026-05-07 19:13 49.31236 8.34376 34781 ft 442 kts 317°
2026-05-07 19:13 49.33531 8.31289 34194 ft 439 kts 317°
2026-05-07 19:13 49.35828 8.28197 33521 ft 436 kts 317°
2026-05-07 19:14 49.38101 8.25136 32835 ft 433 kts 317°
2026-05-07 19:14 49.40365 8.22085 32172 ft 432 kts 317°
2026-05-07 19:14 49.42611 8.19050 31524 ft 430 kts 317°
2026-05-07 19:14 49.44853 8.16018 30892 ft 427 kts 317°
2026-05-07 19:15 49.47071 8.13011 30281 ft 425 kts 317°
2026-05-07 19:15 49.49284 8.10002 29581 ft 422 kts 317°
2026-05-07 19:15 49.51474 8.07019 28867 ft 420 kts 317°
2026-05-07 19:15 49.53657 8.04040 28171 ft 418 kts 317°
2026-05-07 19:16 49.55096 8.02076 27719 ft 416 kts 317°
2026-05-07 19:16 49.57253 7.99131 27056 ft 414 kts 317°
2026-05-07 19:16 49.60106 7.95243 26199 ft 411 kts 317°
2026-05-07 19:16 49.62246 7.92327 25574 ft 409 kts 317°
2026-05-07 19:17 49.63680 7.90367 25237 ft 406 kts 317°
2026-05-07 19:17 49.66426 7.86602 25030 ft 393 kts 316°
2026-05-07 19:17 49.68467 7.83800 25067 ft 392 kts 316°
2026-05-07 19:17 49.69839 7.81914 25067 ft 392 kts 316°
2026-05-07 19:18 49.71874 7.79109 25071 ft 392 kts 316°
2026-05-07 19:18 49.73912 7.76303 25069 ft 392 kts 316°
2026-05-07 19:18 49.75952 7.73497 25070 ft 392 kts 316°
2026-05-07 19:18 49.77968 7.70722 25070 ft 392 kts 316°
2026-05-07 19:19 49.80001 7.67917 25071 ft 393 kts 316°
2026-05-07 19:19 49.82036 7.65098 24843 ft 391 kts 316°
2026-05-07 19:19 49.84057 7.62295 24378 ft 389 kts 316°
2026-05-07 19:19 49.86066 7.59504 23936 ft 387 kts 316°
2026-05-07 19:20 49.88062 7.56731 23494 ft 385 kts 316°
2026-05-07 19:20 49.90050 7.53966 23071 ft 382 kts 316°
2026-05-07 19:20 49.92028 7.51213 22802 ft 382 kts 316°
2026-05-07 19:20 49.94009 7.48453 22533 ft 381 kts 316°
2026-05-07 19:21 49.95977 7.45709 22265 ft 380 kts 316°
2026-05-07 19:21 49.97939 7.42970 22069 ft 379 kts 316°
2026-05-07 19:21 49.99897 7.40236 22083 ft 378 kts 316°
2026-05-07 19:21 50.01854 7.37497 22083 ft 379 kts 316°
2026-05-07 19:22 50.03778 7.34685 22082 ft 378 kts 311°
2026-05-07 19:22 50.05405 7.31507 22089 ft 376 kts 302°
2026-05-07 19:22 50.06687 7.27972 22083 ft 375 kts 293°
2026-05-07 19:22 50.07603 7.24185 22082 ft 373 kts 285°
2026-05-07 19:23 50.08144 7.20238 22058 ft 373 kts 276°
2026-05-07 19:23 50.08439 7.16233 22053 ft 373 kts 281°
2026-05-07 19:23 50.09416 7.12507 22059 ft 375 kts 301°
2026-05-07 19:23 50.10863 7.09124 22058 ft 376 kts 302°
2026-05-07 19:24 50.12315 7.05741 22056 ft 376 kts 302°
2026-05-07 19:24 50.13749 7.02316 22056 ft 376 kts 301°
2026-05-07 19:24 50.15153 6.98873 22058 ft 376 kts 300°
2026-05-07 19:24 50.16522 6.95460 22057 ft 376 kts 300°
2026-05-07 19:25 50.17906 6.92000 22057 ft 376 kts 300°
2026-05-07 19:25 50.19296 6.88531 22065 ft 376 kts 300°
2026-05-07 19:25 50.20685 6.85067 22059 ft 376 kts 301°
2026-05-07 19:25 50.22075 6.81607 22060 ft 376 kts 301°
2026-05-07 19:26 50.23465 6.78146 22065 ft 376 kts 301°
2026-05-07 19:26 50.24853 6.74695 22065 ft 376 kts 301°
2026-05-07 19:26 50.26243 6.71235 22065 ft 376 kts 301°
2026-05-07 19:26 50.27629 6.67775 22069 ft 376 kts 301°
2026-05-07 19:27 50.29017 6.64309 22070 ft 376 kts 301°
2026-05-07 19:27 50.30403 6.60855 22072 ft 376 kts 301°
2026-05-07 19:27 50.31792 6.57386 22075 ft 376 kts 301°
2026-05-07 19:27 50.33177 6.53919 22079 ft 376 kts 301°
2026-05-07 19:28 50.34559 6.50446 22078 ft 376 kts 301°
2026-05-07 19:28 50.35939 6.46970 22079 ft 376 kts 300°
2026-05-07 19:28 50.37318 6.43493 22083 ft 375 kts 301°
2026-05-07 19:28 50.38694 6.40030 22081 ft 375 kts 301°
2026-05-07 19:29 50.40074 6.36556 22079 ft 375 kts 301°
2026-05-07 19:29 50.41450 6.33077 22083 ft 375 kts 300°
2026-05-07 19:29 50.42824 6.29598 22085 ft 375 kts 300°
2026-05-07 19:29 50.44181 6.26161 22077 ft 375 kts 300°
2026-05-07 19:30 50.45554 6.22677 22080 ft 375 kts 300°
2026-05-07 19:30 50.46923 6.19194 22083 ft 375 kts 300°
2026-05-07 19:30 50.48292 6.15705 22082 ft 375 kts 300°
2026-05-07 19:30 50.49662 6.12211 22082 ft 375 kts 300°
2026-05-07 19:31 50.51032 6.08717 22079 ft 375 kts 300°
2026-05-07 19:31 50.52398 6.05230 22079 ft 376 kts 300°
2026-05-07 19:31 50.53765 6.01735 21857 ft 370 kts 300°
2026-05-07 19:31 50.55104 5.98312 20983 ft 366 kts 300°
2026-05-07 19:32 50.56430 5.94912 20098 ft 361 kts 300°
2026-05-07 19:32 50.57736 5.91555 19241 ft 357 kts 300°
2026-05-07 19:32 50.59024 5.88243 18402 ft 353 kts 300°
2026-05-07 19:32 50.60280 5.85005 17485 ft 349 kts 300°
2026-05-07 19:33 50.61536 5.81760 16583 ft 345 kts 300°
2026-05-07 19:33 50.62793 5.78506 15695 ft 341 kts 300°
2026-05-07 19:33 50.64020 5.75330 14854 ft 337 kts 300°
2026-05-07 19:33 50.65229 5.72200 14333 ft 325 kts 300°
2026-05-07 19:34 50.66371 5.69254 14081 ft 306 kts 300°
2026-05-07 19:34 50.67449 5.66468 13549 ft 299 kts 300°
2026-05-07 19:34 50.68524 5.63682 12891 ft 296 kts 300°
2026-05-07 19:34 50.69582 5.60929 12234 ft 293 kts 300°
2026-05-07 19:35 50.70633 5.58190 11601 ft 291 kts 300°
2026-05-07 19:35 50.71675 5.55470 10984 ft 289 kts 300°
2026-05-07 19:35 50.72713 5.52762 10371 ft 286 kts 300°
2026-05-07 19:35 50.73738 5.50085 10083 ft 286 kts 300°
2026-05-07 19:36 50.74765 5.47397 9929 ft 286 kts 300°
2026-05-07 19:36 50.75795 5.44701 9803 ft 286 kts 300°
2026-05-07 19:36 50.76823 5.42016 9664 ft 285 kts 300°
2026-05-07 19:36 50.77848 5.39335 9529 ft 285 kts 300°
2026-05-07 19:37 50.78870 5.36666 9371 ft 285 kts 300°
2026-05-07 19:37 50.79890 5.33989 9022 ft 283 kts 300°
2026-05-07 19:37 50.80905 5.31319 8650 ft 283 kts 300°
2026-05-07 19:37 50.81917 5.28656 8270 ft 282 kts 300°
2026-05-07 19:38 50.82924 5.25995 7889 ft 282 kts 300°
2026-05-07 19:38 50.83923 5.23321 7564 ft 280 kts 299°
2026-05-07 19:38 50.84835 5.20632 7451 ft 276 kts 297°
2026-05-07 19:38 50.85697 5.17919 7311 ft 276 kts 296°
2026-05-07 19:39 50.86541 5.15194 7195 ft 275 kts 295°
2026-05-07 19:39 50.87382 5.12472 7070 ft 275 kts 295°
2026-05-07 19:39 50.88224 5.09759 6932 ft 274 kts 295°
2026-05-07 19:39 50.89057 5.07092 6721 ft 274 kts 296°
2026-05-07 19:40 50.89901 5.04397 6504 ft 273 kts 296°
2026-05-07 19:40 50.90746 5.01706 6262 ft 272 kts 296°
2026-05-07 19:40 50.91592 4.99009 6034 ft 272 kts 296°
2026-05-07 19:40 50.92434 4.96320 5764 ft 272 kts 296°
2026-05-07 19:41 50.93272 4.93649 5449 ft 271 kts 296°
2026-05-07 19:41 50.94108 4.90975 5125 ft 270 kts 296°
2026-05-07 19:41 50.94944 4.88301 4792 ft 269 kts 296°
2026-05-07 19:41 50.95763 4.85667 4452 ft 261 kts 296°
2026-05-07 19:42 50.96546 4.83146 4230 ft 246 kts 296°
2026-05-07 19:42 50.97283 4.80776 4033 ft 233 kts 296°
2026-05-07 19:42 50.97966 4.78546 3851 ft 218 kts 292°
2026-05-07 19:42 50.98275 4.76255 3646 ft 215 kts 270°
2026-05-07 19:43 50.98029 4.73942 3407 ft 213 kts 248°
2026-05-07 19:43 50.97427 4.71805 3129 ft 211 kts 245°
2026-05-07 19:43 50.96825 4.69703 2869 ft 207 kts 245°
2026-05-07 19:43 50.96229 4.67617 2561 ft 203 kts 245°
2026-05-07 19:44 50.95656 4.65617 2277 ft 194 kts 245°
2026-05-07 19:44 50.95115 4.63725 2033 ft 185 kts 245°
2026-05-07 19:44 50.94602 4.61938 1788 ft 173 kts 245°
2026-05-07 19:44 50.94111 4.60227 1577 ft 167 kts 245°
2026-05-07 19:45 50.93638 4.58577 1329 ft 157 kts 245°
2026-05-07 19:45 50.93202 4.57061 1117 ft 148 kts 245°
2026-05-07 19:45 50.92782 4.55599 917 ft 144 kts 245°
2026-05-07 19:45 50.92370 4.54165 703 ft 142 kts 245°
2026-05-07 19:46 50.91962 4.52747 521 ft 141 kts 246°
2026-05-07 19:46 50.91557 4.51338 335 ft 140 kts 246°
2026-05-07 19:46 50.91153 4.49937 170 ft 139 kts 246°
2026-05-07 19:46 50.90775 4.48623 119 ft 108 kts 245°
2026-05-07 19:47 50.90579 4.47945 120 ft 44 kts 245°
2026-05-07 19:47 50.90438 4.47660 124 ft 28 kts 214°
2026-05-07 19:47 50.90349 4.47561 120 ft 11 kts 215°
2026-05-07 19:47 50.90334 4.47543 123 ft 1 kts 215°
2026-05-07 19:48 50.90316 4.47541 120 ft 4 kts 163°
2026-05-07 19:48 50.90302 4.47603 121 ft 8 kts 84°
2026-05-07 19:48 50.90325 4.47692 117 ft 7 kts 65°
2026-05-07 19:48 50.90349 4.47775 120 ft 10 kts 65°
2026-05-07 19:49 50.90369 4.47844 119 ft 4 kts 65°
2026-05-07 19:49 50.90374 4.47863 120 ft 0 kts 65°
2026-05-07 19:52 50.90375 4.47864 120 ft 1 kts 65°
2026-05-07 19:52 50.90381 4.47884 118 ft 4 kts 65°
2026-05-07 19:52 50.90397 4.47943 119 ft 7 kts 65°
2026-05-07 19:53 50.90397 4.48024 121 ft 9 kts 137°
2026-05-07 19:53 50.90372 4.48043 120 ft 2 kts 168°
2026-05-07 19:53 50.90345 4.48028 121 ft 6 kts 221°
2026-05-07 19:53 50.90320 4.47952 118 ft 9 kts 246°
2026-05-07 19:54 50.90293 4.47855 118 ft 8 kts 245°
2026-05-07 19:54 50.90262 4.47779 119 ft 8 kts 206°
2026-05-07 19:54 50.90216 4.47804 118 ft 4 kts 155°
2026-05-07 19:54 50.90197 4.47818 119 ft 2 kts 156°
2026-05-07 19:55 50.90195 4.47819 119 ft 0 kts 156°